[[{"header":{"parameterUnit":"m.s-1","parameterCategory":2,"la1":30.2991,"la2":30.254,"lo1":-89.0895,"lo2":-89.0444,"dy":0.0017,"dx":0.0017,"nx":28,"ny":28,"refTime":"2023-10-16T21:00:00:Z","depth":"0","parameterNumber":2,"parameterNumberName":"U-component_of_CURRENTS"},"data":[0,0,0,0,0,0,0,0,0,0,0,0,0,0,0,0,0,0,0,0,0,0,0,0,0,0,0,0,0,0,0,0,0,0,0,0,0,0,0,0,0,0,0,0,0,0,0,0,0,0,0,0,0,0,0,0,0,0,0.4085,0.4086,0,0.4163,0.4164,0.4164,0.4101,0.4099,0.4097,0.4095,0.3958,0.3956,0.3955,0,0,0,0,0,0,0,0,0,0,0,0,0,0.3971,0.3972,0.4085,0.4086,0.4088,0.4163,0.4164,0.4164,0.4101,0.4099,0.4096,0.4094,0.3959,0.3956,0.3954,0,0,0,0,0,0,0,0,0,0,0,0,0,0.4025,0.3973,0.4084,0.4071,0.4071,0.4163,0.4164,0.4164,0.4102,0.4099,0.4096,0.4093,0.3959,0.3957,0.3954,0.3997,0,0,0.3946,0.3945,0,0,0,0,0,0,0,0,0.4022,0.4028,0.4072,0.4072,0.4073,0.4126,0.4074,0.41,0.4103,0.4082,0.4095,0.4092,0.4001,0.3995,0.4009,0.3991,0.3985,0.3946,0.3944,0.3943,0.3942,0,0,0,0,0,0,0,0.4018,0.4025,0.4108,0.4074,0.4075,0.4093,0.4096,0.4079,0.4048,0.4084,0.4081,0.4103,0.3998,0.4012,0.4005,0.3983,0.3946,0.3943,0.3942,0.3941,0.4152,0.4159,0,0,0,0,0,0,0.4022,0.4022,0.4106,0.4111,0.4048,0.4098,0.4101,0.4106,0.4053,0.4046,0.4106,0.41,0.4018,0.4008,0.3999,0.412,0.3943,0.394,0.3939,0.4145,0.4154,0.4162,0,0,0,0,0,0,0.4019,0.4029,0.4103,0.4075,0.4086,0.4103,0.411,0.4109,0.4133,0.4073,0.4059,0.4131,0.4015,0.4003,0.4044,0.411,0.3939,0.3937,0.4137,0.4148,0.4158,0.4313,0,0,0,0,0,0,0.4015,0.4026,0.4033,0.4075,0.4088,0.4176,0.4113,0.4113,0.4153,0.4147,0.4091,0.4074,0.4012,0.405,0.4042,0.4103,0.3935,0.4128,0.4142,0.4155,0.4299,0.4328,0.4353,0,0,0,0,0,0.4011,0.4036,0.4032,0.4043,0.4095,0.4179,0.4189,0.4185,0.4158,0.4189,0.418,0.4076,0.413,0.4053,0.4042,0.4104,0.4121,0.4138,0.4153,0.4287,0.4322,0.4352,0,0,0,0,0,0,0.3974,0.4034,0.403,0.4065,0.4127,0.4171,0.4207,0.4211,0.4232,0.4222,0.4149,0.4136,0.4206,0.4163,0.408,0.4224,0.4117,0.4132,0.4223,0.4255,0.4282,0.4223,0.3932,0,0,0,0,0,0.3977,0.4013,0.4076,0.4105,0.4146,0.4183,0.4216,0.4227,0.4256,0.4262,0.4231,0.4232,0.4271,0.4265,0.428,0.4338,0.4317,0.4389,0.4416,0.4438,0.4397,0.448,0.4508,0.4215,0.4215,0.4215,0,0,0.3972,0.4009,0.4028,0.4102,0.4146,0.4236,0.4194,0.4269,0.4329,0.4244,0.4306,0.4318,0.4318,0.4398,0.4425,0.4357,0.4531,0.4459,0.4476,0.4421,0.45,0.4527,0.4551,0.4226,0.4224,0.4223,0,0,0.4031,0.4021,0.4103,0.4161,0.4254,0.4281,0.4314,0.4384,0.4397,0.448,0.4459,0.4516,0.4543,0.4565,0.4579,0.4772,0.4682,0.4799,0.4854,0.494,0.4962,0.498,0.5047,0.507,0.4797,0.4797,0.4797,0,0.4035,0.4115,0.4141,0.4245,0.4286,0.4312,0.4409,0.4454,0.4523,0.4537,0.4518,0.4624,0.4623,0.4723,0.48,0.482,0.4845,0.4714,0.4966,0.4983,0.4999,0.5062,0.5085,0.4807,0.4806,0.4805,0.4804,0,0.4187,0.4232,0.4287,0.4409,0.4462,0.4542,0.4609,0.4657,0.4669,0.4697,0.479,0.4822,0.4864,0.4919,0.4904,0.5043,0.5021,0.4995,0.4855,0.5036,0.5095,0.5116,0.482,0.4817,0.4814,0.4812,0,0,0.4242,0.4369,0.4385,0.4426,0.4539,0.4591,0.4694,0.4775,0.4816,0.4886,0.4939,0.5053,0.5038,0.5059,0.5076,0.5143,0.5317,0.5114,0.5114,0.5129,0.5502,0.5355,0.5363,0.5332,0.5336,0.5339,0.5514,0,0.4353,0.4517,0.4557,0.4674,0.475,0.4768,0.4844,0.4908,0.4944,0.5002,0.5045,0.5112,0.5106,0.5135,0.5215,0.5273,0.5371,0.527,0.5364,0.5366,0.5172,0.5382,0.5014,0.5126,0.5533,0.5537,0.5539,0,0.4508,0.4571,0.4705,0.4751,0.4787,0.4852,0.4909,0.4985,0.5065,0.5093,0.5156,0.5176,0.5286,0.5261,0.5437,0.5372,0.5453,0.5499,0.5507,0.5302,0.5256,0.5007,0.5147,0.497,0.557,0.5567,0.5565,0,0.4524,0.4661,0.4734,0.4768,0.4859,0.4886,0.4924,0.5001,0.5033,0.514,0.5156,0.5286,0.532,0.5454,0.5528,0.551,0.5697,0.5691,0.5646,0.5637,0.5299,0.5252,0.5212,0.5848,0.5847,0.5847,0.5846,0,0.4608,0.4662,0.4735,0.4771,0.4819,0.4884,0.4931,0.4991,0.5061,0.511,0.5185,0.5237,0.5366,0.5462,0.5571,0.5648,0.5749,0.5671,0.5679,0.5354,0.5312,0.5115,0.5083,0.5854,0.5852,0.5851,0.585,0,0.4612,0.4684,0.4745,0.4813,0.4828,0.4853,0.4895,0.4938,0.5005,0.5072,0.5102,0.5208,0.5351,0.5462,0.5664,0.5657,0.5597,0.5793,0.5384,0.5338,0.5095,0.5086,0.4936,0.4816,0.5785,0.5782,0.578,0,0.4619,0.4661,0.4729,0.4751,0.4773,0.4809,0.4839,0.4906,0.4952,0.5059,0.5096,0.5214,0.5326,0.5503,0.5501,0.5639,0.5534,0.5356,0.5254,0.5037,0.5037,0.4917,0.4819,0.4912,0.4903,0.4896,0.489,0,0.4592,0.4626,0.4672,0.4722,0.475,0.4768,0.4815,0.4831,0.4935,0.4981,0.5093,0.5186,0.5276,0.5187,0.5251,0.5292,0.5019,0.5209,0.5087,0.443,0.4191,0.4088,0.4856,0.4824,0.483,0.4835,0.4839,0.4841,0.4554,0.4576,0.4653,0.4689,0.4722,0.4742,0.4716,0.4776,0.4821,0.482,0.4998,0.4963,0.4845,0.487,0.488,0.4488,0.4671,0.43,0.4343,0.427,0.4012,0.4629,0.4534,0.4539,0.4543,0.4547,0.455,0,0.4532,0.4585,0.4613,0.4665,0.4667,0.4693,0.4713,0.4629,0.4637,0.4623,0.4666,0.4403,0.4223,0.4102,0.3761,0.3604,0.348,0.3491,0.3212,0.3197,0.3805,0.3616,0.3186,0.3186,0.3187,0.3187,0.3187,0.3187,0.4538,0.4589,0.461,0.4608,0.4614,0.45,0.4474,0.435,0.4267,0.399,0.3753,0.3708,0.3563,0.329,0.2972,0.2901,0.2745,0.255,0.2737,0.3108,0.3185,0.3258,0.3069,0.2532,0.2531,0.1872,0.1867,0.1863]},{"header":{"parameterUnit":"m.s-1","parameterCategory":2,"la1":30.2991,"la2":30.254,"lo1":-89.0895,"lo2":-89.0444,"dy":0.0017,"dx":0.0017,"nx":28,"ny":28,"refTime":"2023-10-16T21:00:00:Z","depth":"0","parameterNumber":3,"parameterNumberName":"V-component_of_CURRENTS"},"data":[0,0,0,0,0,0,0,0,0,0,0,0,0,0,0,0,0,0,0,0,0,0,0,0,0,0,0,0,0,0,0,0,0,0,0,0,0,0,0,0,0,0,0,0,0,0,0,0,0,0,0,0,0,0,0,0,0,0,-0.0336,-0.0337,0,-0.0361,-0.0362,-0.0362,-0.0341,-0.034,-0.0339,-0.0338,-0.0344,-0.0345,-0.0346,0,0,0,0,0,0,0,0,0,0,0,0,0,-0.0321,-0.0321,-0.0336,-0.0337,-0.0337,-0.0361,-0.0362,-0.0362,-0.0341,-0.034,-0.0339,-0.0338,-0.0344,-0.0345,-0.0346,0,0,0,0,0,0,0,0,0,0,0,0,0,-0.0335,-0.0321,-0.0336,-0.0329,-0.0329,-0.0361,-0.0362,-0.0362,-0.0341,-0.034,-0.0339,-0.0337,-0.0344,-0.0345,-0.0347,-0.0382,0,0,-0.0351,-0.0352,0,0,0,0,0,0,0,0,-0.0334,-0.0336,-0.033,-0.033,-0.0329,-0.0346,-0.0358,-0.0368,-0.0342,-0.0337,-0.0338,-0.0337,-0.0344,-0.0346,-0.0354,-0.0383,-0.0383,-0.0351,-0.0352,-0.0353,-0.0353,0,0,0,0,0,0,0,-0.0333,-0.0335,-0.0346,-0.0331,-0.033,-0.0342,-0.0342,-0.0361,-0.0348,-0.0337,-0.0336,-0.0339,-0.0344,-0.0352,-0.0354,-0.0383,-0.0351,-0.0352,-0.0353,-0.0354,-0.0473,-0.0475,0,0,0,0,0,0,-0.0329,-0.0334,-0.0346,-0.0347,-0.0329,-0.0343,-0.0344,-0.0343,-0.0348,-0.0347,-0.034,-0.0338,-0.0351,-0.0352,-0.0354,-0.0402,-0.0353,-0.0354,-0.0355,-0.0471,-0.0473,-0.0476,0,0,0,0,0,0,-0.0328,-0.033,-0.0345,-0.0341,-0.0344,-0.0345,-0.0344,-0.0344,-0.0352,-0.035,-0.0349,-0.0348,-0.035,-0.0352,-0.0388,-0.0402,-0.0355,-0.0356,-0.0468,-0.0472,-0.0475,-0.0495,0,0,0,0,0,0,-0.0328,-0.0329,-0.0336,-0.0341,-0.0344,-0.0378,-0.0345,-0.0345,-0.0356,-0.0353,-0.0357,-0.0356,-0.0349,-0.0386,-0.039,-0.0403,-0.0357,-0.0465,-0.047,-0.0474,-0.0492,-0.0499,-0.0505,0,0,0,0,0,-0.0327,-0.0347,-0.0336,-0.0338,-0.0349,-0.038,-0.0384,-0.038,-0.0358,-0.0379,-0.0382,-0.0356,-0.0415,-0.039,-0.0393,-0.0407,-0.0463,-0.0468,-0.0473,-0.0489,-0.0498,-0.0505,0,0,0,0,0,0,-0.034,-0.0347,-0.0334,-0.0352,-0.0369,-0.0376,-0.04,-0.0387,-0.0406,-0.0402,-0.0387,-0.0389,-0.0428,-0.0427,-0.0398,-0.0459,-0.0435,-0.0441,-0.0445,-0.0454,-0.046,-0.0405,-0.0359,0,0,0,0,0,-0.0346,-0.0364,-0.0368,-0.0385,-0.0397,-0.0397,-0.0409,-0.0405,-0.0418,-0.0423,-0.0422,-0.0432,-0.0455,-0.046,-0.0485,-0.0516,-0.0467,-0.053,-0.0537,-0.0542,-0.0503,-0.0477,-0.0475,-0.0493,-0.0493,-0.0493,0,0,-0.0356,-0.0361,-0.0371,-0.039,-0.0402,-0.0418,-0.0402,-0.043,-0.0431,-0.0423,-0.0439,-0.0462,-0.0474,-0.0511,-0.0527,-0.0506,-0.0514,-0.0549,-0.0552,-0.051,-0.0482,-0.0479,-0.0477,-0.0496,-0.0496,-0.0495,0,0,-0.0391,-0.0391,-0.042,-0.0432,-0.0453,-0.0451,-0.0458,-0.0472,-0.0472,-0.0499,-0.0494,-0.0519,-0.0553,-0.0555,-0.0561,-0.0622,-0.0559,-0.0644,-0.0617,-0.0594,-0.059,-0.0586,-0.0513,-0.0503,-0.0636,-0.0636,-0.0636,0,-0.0404,-0.0418,-0.0436,-0.0459,-0.0455,-0.0462,-0.0472,-0.0486,-0.0505,-0.0494,-0.0509,-0.054,-0.0565,-0.0572,-0.0598,-0.063,-0.0587,-0.058,-0.0596,-0.0591,-0.0587,-0.0513,-0.0501,-0.0638,-0.0638,-0.0638,-0.0637,0,-0.0453,-0.0456,-0.0478,-0.0492,-0.05,-0.0517,-0.052,-0.053,-0.0525,-0.052,-0.0539,-0.0576,-0.0572,-0.0611,-0.062,-0.0612,-0.0582,-0.0612,-0.0559,-0.0585,-0.0508,-0.0495,-0.064,-0.064,-0.0639,-0.0639,0,0,-0.0481,-0.0507,-0.0506,-0.049,-0.0506,-0.0507,-0.0518,-0.051,-0.0479,-0.0524,-0.0481,-0.0556,-0.0551,-0.0558,-0.0582,-0.057,-0.0525,-0.0572,-0.0571,-0.0469,-0.0425,-0.0362,-0.0342,-0.0556,-0.0554,-0.0553,-0.0377,0,-0.0502,-0.0524,-0.0531,-0.0521,-0.0517,-0.0508,-0.0498,-0.0491,-0.0484,-0.0456,-0.0485,-0.0475,-0.0539,-0.0528,-0.0534,-0.0523,-0.0493,-0.0566,-0.0439,-0.0433,-0.0351,-0.0326,-0.0315,-0.0155,-0.0364,-0.0362,-0.0361,0,-0.0527,-0.0527,-0.0526,-0.0482,-0.048,-0.0472,-0.0412,-0.0408,-0.0383,-0.0373,-0.037,-0.038,-0.0368,-0.0426,-0.0386,-0.0426,-0.0415,-0.0412,-0.0406,-0.0319,-0.0347,-0.0169,-0.0122,-0.0275,-0.034,-0.0342,-0.0343,0,-0.0496,-0.0503,-0.0486,-0.048,-0.0457,-0.0432,-0.0408,-0.0377,-0.0336,-0.0301,-0.0248,-0.0265,-0.0223,-0.0244,-0.0239,-0.0305,-0.0165,-0.0261,-0.0184,-0.0178,-0.0123,-0.0115,-0.0177,-0.0213,-0.0214,-0.0214,-0.0215,0,-0.0486,-0.0466,-0.0466,-0.0448,-0.0395,-0.039,-0.0319,-0.0299,-0.0241,-0.0154,-0.0191,-0.0104,-0.0174,-0.0114,-0.016,-0.009,-0.0096,-0.0135,-0.0123,-0.0133,-0.0128,-0.0223,-0.0326,-0.0208,-0.0209,-0.021,-0.0211,0,-0.0448,-0.046,-0.0422,-0.0392,-0.0378,-0.033,-0.0254,-0.019,-0.0147,-0.0024,0.0003,0.0055,0.0151,0.0117,0.0137,0.0062,0.0035,0.0107,0.0132,0.0142,0.0018,-0.0085,-0.0038,-0.0076,0.0205,0.0208,0.021,0,-0.0431,-0.0412,-0.0369,-0.0328,-0.0311,-0.0249,-0.0188,-0.0145,-0.0062,0.0094,0.0178,0.03,0.044,0.051,0.0411,0.0404,0.0215,0.035,0.0198,0.0058,-0.005,-0.0127,-0.017,0.0267,0.027,0.0272,0.0273,0,-0.037,-0.0356,-0.0325,-0.0243,-0.0179,-0.0103,-0.0014,0.0065,0.016,0.0307,0.0525,0.0655,0.073,0.075,0.0701,0.0628,0.024,0.0392,0.0225,-0.0001,-0.0063,-0.0109,0.0129,0.0292,0.029,0.0289,0.0288,0.0287,-0.0311,-0.0271,-0.0216,-0.0138,-0.0054,0.0069,0.0173,0.0301,0.0492,0.0779,0.0832,0.1138,0.1015,0.0974,0.0808,0.047,0.044,0.0313,0.0211,0.0156,0.0075,0.0389,0.0562,0.0561,0.0561,0.0561,0.0561,0,-0.0222,-0.0181,-0.0103,0.0015,0.0149,0.0155,0.0322,0.0474,0.0756,0.1057,0.132,0.1516,0.1335,0.1046,0.0582,0.031,0.0168,0.0137,-0.0027,-0.0056,0.0214,0.0164,0.0285,0.0285,0.0285,0.0285,0.0285,0.0285,-0.0159,-0.0078,-0.0044,0.0184,0.028,0.0481,0.0593,0.0831,0.1078,0.1525,0.1805,0.1985,0.1737,0.0788,0.0135,-0.0012,-0.0237,-0.024,-0.0346,-0.026,-0.0255,-0.0251,-0.0324,-0.0308,-0.0309,-0.0589,-0.0592,-0.0595]}],[{"header":{"parameterUnit":"m.s-1","parameterCategory":2,"la1":30.2991,"la2":30.254,"lo1":-89.0895,"lo2":-89.0444,"dy":0.0017,"dx":0.0017,"nx":28,"ny":28,"refTime":"2023-10-16T21:00:00:Z","depth":"2","parameterNumber":2,"parameterNumberName":"U-component_of_CURRENTS"},"data":[0,0,0,0,0,0,0,0,0,0,0,0,0,0,0,0,0,0,0,0,0,0,0,0,0,0,0,0,0,0,0,0,0,0,0,0,0,0,0,0,0,0,0,0,0,0,0,0,0,0,0,0,0,0,0,0,0,0,0.2165,0.2164,0,0.2069,0.2067,0.2066,0.2187,0.2191,0.2196,0.22,0.2337,0.2336,0.2336,0,0,0,0,0,0,0,0,0,0,0,0,0,0.218,0.218,0.2165,0.2164,0.2163,0.2069,0.2067,0.2066,0.2186,0.2192,0.2197,0.2203,0.2337,0.2336,0.2335,0,0,0,0,0,0,0,0,0,0,0,0,0,0.2135,0.218,0.2165,0.2214,0.2217,0.2069,0.2067,0.2065,0.2185,0.2192,0.2199,0.2205,0.2337,0.2336,0.2335,0.2188,0,0,0.2332,0.2332,0,0,0,0,0,0,0,0,0.2138,0.2135,0.2208,0.221,0.2214,0.2149,0.2122,0.2119,0.2183,0.2194,0.2201,0.2209,0.2292,0.2295,0.2254,0.2195,0.2201,0.2332,0.2331,0.2331,0.2331,0,0,0,0,0,0,0,0.2141,0.2138,0.2124,0.2206,0.221,0.2147,0.215,0.212,0.2207,0.2194,0.2203,0.2194,0.2297,0.2255,0.2259,0.2203,0.2332,0.2331,0.233,0.233,0.2356,0.2357,0,0,0,0,0,0,0.2165,0.2141,0.2127,0.2122,0.2195,0.2142,0.2146,0.2161,0.2203,0.2215,0.2188,0.22,0.2253,0.226,0.2265,0.2364,0.2331,0.233,0.2329,0.2355,0.2356,0.2358,0,0,0,0,0,0,0.2166,0.2165,0.2131,0.213,0.2122,0.2137,0.2151,0.2155,0.2168,0.2197,0.2215,0.2205,0.2259,0.2267,0.2333,0.2362,0.2329,0.2328,0.2353,0.2355,0.2357,0.239,0,0,0,0,0,0,0.2167,0.2166,0.2184,0.2133,0.2124,0.2107,0.2144,0.2148,0.215,0.2166,0.2214,0.2231,0.2265,0.2335,0.2332,0.236,0.2328,0.2351,0.2354,0.2356,0.2388,0.2393,0.2398,0,0,0,0,0,0.2168,0.2164,0.2186,0.2184,0.2149,0.2107,0.2097,0.2126,0.2145,0.2159,0.2219,0.2233,0.235,0.2334,0.2331,0.2359,0.235,0.2353,0.2356,0.2385,0.2392,0.2398,0,0,0,0,0,0,0.2203,0.2174,0.2198,0.2197,0.2186,0.2131,0.2117,0.2124,0.2159,0.2191,0.2229,0.225,0.2317,0.2323,0.2304,0.2377,0.2356,0.2359,0.238,0.2386,0.2391,0.2463,0.2327,0,0,0,0,0,0.2207,0.2193,0.2176,0.2179,0.2165,0.2137,0.2119,0.2142,0.2156,0.2177,0.2218,0.2266,0.23,0.2342,0.2363,0.2379,0.2432,0.2403,0.2408,0.2412,0.247,0.2546,0.2565,0.2367,0.2367,0.2367,0,0,0.2213,0.2201,0.2193,0.2182,0.2157,0.2161,0.2146,0.2131,0.2168,0.2181,0.2252,0.227,0.2306,0.236,0.239,0.2388,0.2496,0.2416,0.242,0.2477,0.2552,0.2571,0.2588,0.237,0.2369,0.2369,0,0,0.2214,0.2213,0.2205,0.2203,0.219,0.2171,0.2179,0.2157,0.219,0.2253,0.2266,0.2339,0.238,0.2425,0.245,0.2489,0.2508,0.2464,0.2562,0.2633,0.2651,0.2667,0.276,0.2784,0.2482,0.2482,0.2482,0,0.2217,0.2237,0.2197,0.2211,0.2212,0.219,0.2206,0.2211,0.2236,0.227,0.2324,0.2408,0.244,0.2495,0.254,0.2507,0.2546,0.2529,0.2642,0.2659,0.2676,0.2767,0.2793,0.2484,0.2483,0.2483,0.2483,0,0.2232,0.2259,0.2245,0.2266,0.2265,0.226,0.2275,0.2296,0.2344,0.2383,0.2475,0.2525,0.2605,0.2594,0.2602,0.2688,0.2677,0.2624,0.2628,0.2698,0.2789,0.2816,0.2487,0.2486,0.2485,0.2485,0,0,0.2196,0.2239,0.2243,0.2285,0.2294,0.2296,0.234,0.2376,0.2442,0.2516,0.2618,0.2696,0.2732,0.2763,0.2735,0.281,0.296,0.2781,0.2783,0.288,0.3134,0.2962,0.2975,0.2904,0.2909,0.2912,0.3152,0,0.2216,0.2269,0.2275,0.2339,0.237,0.237,0.2426,0.2476,0.2547,0.2644,0.2704,0.2801,0.2783,0.2832,0.2905,0.295,0.3032,0.2902,0.305,0.3057,0.2899,0.3001,0.2725,0.2899,0.3178,0.3183,0.3186,0,0.2241,0.2279,0.2343,0.2416,0.2424,0.2465,0.2544,0.2594,0.2701,0.2774,0.2875,0.2917,0.3049,0.3011,0.32,0.311,0.3153,0.3184,0.3191,0.3052,0.2935,0.2875,0.2937,0.3231,0.3228,0.3224,0.3221,0,0.2252,0.2326,0.2382,0.2407,0.2484,0.2518,0.2554,0.2654,0.2718,0.2856,0.2952,0.3081,0.3174,0.3275,0.3337,0.3301,0.3513,0.3468,0.3353,0.3342,0.3154,0.3116,0.3601,0.3601,0.36,0.3599,0.3599,0,0.2248,0.2319,0.2411,0.2432,0.2526,0.2579,0.2678,0.2727,0.2851,0.2943,0.3028,0.3104,0.3243,0.334,0.3406,0.3468,0.3581,0.3427,0.3403,0.3153,0.3114,0.3429,0.3406,0.3608,0.3606,0.3605,0.3603,0,0.2251,0.2311,0.2385,0.2473,0.2529,0.2592,0.2712,0.2783,0.2913,0.3032,0.3081,0.3192,0.3337,0.3425,0.3582,0.3539,0.3617,0.3573,0.3274,0.3208,0.3407,0.3383,0.3589,0.3585,0.3582,0.3579,0.3577,0,0.2266,0.2316,0.2396,0.2449,0.2488,0.261,0.2682,0.2799,0.2848,0.3051,0.3073,0.3245,0.3287,0.3448,0.3434,0.3529,0.3569,0.3252,0.3135,0.3457,0.3413,0.3394,0.3375,0.2928,0.292,0.2914,0.2909,0,0.2283,0.2303,0.2303,0.2416,0.249,0.2593,0.2684,0.2706,0.2837,0.2951,0.3043,0.3113,0.3229,0.3142,0.3178,0.3179,0.3232,0.3128,0.3578,0.2923,0.2837,0.2791,0.2795,0.2855,0.2861,0.2865,0.2868,0.287,0.2256,0.2262,0.2267,0.2392,0.2458,0.2529,0.2533,0.2609,0.2677,0.2736,0.2857,0.287,0.2895,0.2829,0.2762,0.2721,0.2968,0.2827,0.2846,0.2871,0.2701,0.2608,0.2556,0.256,0.2563,0.2566,0.2568,0,0.2237,0.2271,0.2304,0.2344,0.2353,0.2471,0.2514,0.244,0.2434,0.2513,0.2577,0.2363,0.2294,0.2354,0.2217,0.2207,0.2191,0.211,0.2071,0.2127,0.2176,0.1969,0.1633,0.1629,0.1627,0.1624,0,0,0.2194,0.2213,0.2251,0.2274,0.2308,0.2276,0.2265,0.2175,0.2152,0.2056,0.2057,0.2183,0.2265,0.1916,0.1876,0.1728,0.1907,0.1654,0.2409,0.2419,0.2464,0.2601,0.2346,0,0,0,0,0]},{"header":{"parameterUnit":"m.s-1","parameterCategory":2,"la1":30.2991,"la2":30.254,"lo1":-89.0895,"lo2":-89.0444,"dy":0.0017,"dx":0.0017,"nx":28,"ny":28,"refTime":"2023-10-16T21:00:00:Z","depth":"2","parameterNumber":3,"parameterNumberName":"V-component_of_CURRENTS"},"data":[0,0,0,0,0,0,0,0,0,0,0,0,0,0,0,0,0,0,0,0,0,0,0,0,0,0,0,0,0,0,0,0,0,0,0,0,0,0,0,0,0,0,0,0,0,0,0,0,0,0,0,0,0,0,0,0,0,0,0.0157,0.0157,0,0.0154,0.0154,0.0154,0.0079,0.0077,0.0075,0.0074,-0.0031,-0.0032,-0.0033,0,0,0,0,0,0,0,0,0,0,0,0,0,0.0138,0.0138,0.0157,0.0157,0.0157,0.0154,0.0154,0.0154,0.0079,0.0077,0.0075,0.0073,-0.0031,-0.0032,-0.0033,0,0,0,0,0,0,0,0,0,0,0,0,0,0.014,0.0139,0.0157,0.0121,0.0118,0.0154,0.0154,0.0153,0.008,0.0077,0.0074,0.0072,-0.003,-0.0032,-0.0033,0.0008,0,0,-0.0039,-0.004,0,0,0,0,0,0,0,0,0.014,0.014,0.0126,0.0124,0.012,0.0116,0.0109,0.01,0.008,0.0092,0.0074,0.0071,0.0012,0.0007,0.001,0.0003,-0.0002,-0.0039,-0.004,-0.0041,-0.0041,0,0,0,0,0,0,0,0.014,0.014,0.0153,0.0127,0.0123,0.0119,0.0116,0.0107,0.0063,0.0091,0.0086,0.009,0.0009,0.0012,0.0007,-0.0003,-0.0039,-0.004,-0.0042,-0.0042,-0.0068,-0.0067,0,0,0,0,0,0,0.0145,0.014,0.0154,0.0154,0.0126,0.0122,0.0118,0.0118,0.0065,0.0056,0.0092,0.0086,0.0017,0.0009,0.0003,0.0011,-0.0041,-0.0042,-0.0043,-0.0068,-0.0067,-0.0067,0,0,0,0,0,0,0.0145,0.0146,0.0154,0.0149,0.0149,0.0125,0.0126,0.012,0.0113,0.0068,0.0055,0.009,0.0014,0.0006,-0.0024,0.0007,-0.0043,-0.0045,-0.0068,-0.0068,-0.0067,0.005,0,0,0,0,0,0,0.0144,0.0146,0.0147,0.0149,0.015,0.0171,0.0128,0.0122,0.0121,0.0113,0.0063,0.0051,0.0012,-0.0021,-0.0026,0.0003,-0.0046,-0.0069,-0.0068,-0.0067,0.0045,0.0054,0.0062,0,0,0,0,0,0.0144,0.0158,0.0146,0.0148,0.0151,0.0172,0.0173,0.0145,0.0123,0.0128,0.0082,0.0052,-0.0021,-0.0022,-0.0028,0.0002,-0.0069,-0.0068,-0.0068,0.0042,0.0052,0.0061,0,0,0,0,0,0,0.0146,0.0153,0.0139,0.0152,0.0159,0.016,0.017,0.0155,0.0129,0.0117,0.0062,0.0048,0.0035,-0.0001,-0.0002,-0.0008,-0.0051,-0.0051,0.0034,0.0044,0.0052,0.0084,-0.0048,0,0,0,0,0,0.0151,0.0163,0.0167,0.0178,0.0188,0.0182,0.0187,0.0174,0.0156,0.0142,0.0108,0.0067,0.0042,0.0023,-0.0004,0.0001,-0.0023,0.0011,0.0019,0.0027,0.0046,0.0039,0.005,-0.0064,-0.0064,-0.0064,0,0,0.0153,0.0162,0.0165,0.018,0.0187,0.022,0.0178,0.0197,0.0221,0.0137,0.0149,0.0101,0.0048,0.0045,0.0036,0.0014,0.0044,0.0028,0.0035,0.005,0.0041,0.0053,0.0063,-0.0064,-0.0064,-0.0064,0,0,0.0188,0.0178,0.0208,0.0224,0.0245,0.0247,0.0256,0.0262,0.0257,0.0258,0.0207,0.0174,0.0135,0.011,0.0089,0.0128,0.009,0.0115,0.0185,0.0179,0.0189,0.0198,0.0178,0.0184,0.0117,0.0117,0.0117,0,0.0199,0.0236,0.022,0.0264,0.0293,0.0266,0.0318,0.0319,0.031,0.0315,0.0267,0.0223,0.017,0.0182,0.0181,0.0152,0.0135,0.0158,0.0193,0.0201,0.0208,0.0186,0.0192,0.0123,0.0122,0.0122,0.0121,0,0.0261,0.0296,0.0323,0.0368,0.0387,0.0433,0.0438,0.0453,0.0434,0.0418,0.0416,0.0347,0.0316,0.0295,0.0245,0.0277,0.0245,0.021,0.0178,0.0228,0.02,0.0203,0.0131,0.0129,0.0127,0.0126,0,0,0.0287,0.036,0.0371,0.0419,0.0456,0.0487,0.0532,0.0567,0.0606,0.0558,0.0594,0.0528,0.0477,0.0451,0.0396,0.0383,0.04,0.0322,0.0319,0.0321,0.0384,0.0316,0.0312,0.0377,0.0378,0.0379,0.0344,0,0.0356,0.0469,0.0479,0.0579,0.0639,0.0642,0.0694,0.0706,0.0698,0.0718,0.0644,0.064,0.0543,0.0534,0.0505,0.0444,0.0415,0.0412,0.032,0.0317,0.0266,0.0317,0.0319,0.0284,0.0347,0.0347,0.0348,0,0.0422,0.0491,0.0609,0.0711,0.0739,0.0784,0.0868,0.0908,0.091,0.0906,0.0874,0.0804,0.0779,0.068,0.0604,0.0611,0.0502,0.0437,0.0433,0.0336,0.0256,0.0243,0.0287,0.0353,0.0352,0.0352,0.0352,0,0.0473,0.0587,0.0692,0.0726,0.0821,0.0874,0.0921,0.0952,0.1009,0.102,0.1044,0.0983,0.0961,0.0852,0.0673,0.0655,0.0573,0.0529,0.0361,0.0354,0.0321,0.0309,0.0456,0.0456,0.0456,0.0456,0.0456,0,0.0568,0.0643,0.0722,0.0786,0.0895,0.0932,0.1044,0.1087,0.1148,0.1218,0.1136,0.1168,0.1002,0.0908,0.0743,0.0569,0.0621,0.0393,0.0351,0.0357,0.035,0.0376,0.0367,0.0454,0.0455,0.0455,0.0455,0,0.0617,0.0677,0.0796,0.0905,0.0926,0.1005,0.1124,0.1225,0.1263,0.1358,0.1368,0.132,0.1217,0.1019,0.0838,0.0664,0.05,0.04,0.0408,0.0367,0.0271,0.0269,0.0264,0.0262,0.026,0.0258,0.0256,0,0.0663,0.0723,0.0859,0.0931,0.0984,0.1086,0.1183,0.1269,0.137,0.1447,0.1507,0.1424,0.1358,0.1069,0.0773,0.0495,0.0455,0.0293,0.025,0.0297,0.0257,0.0258,0.0258,0.025,0.0249,0.0248,0.0247,0,0.0732,0.0776,0.0885,0.1014,0.1128,0.1267,0.1394,0.148,0.159,0.1644,0.1702,0.1646,0.1363,0.107,0.067,0.0477,0.0351,0.0259,0.0334,0.0287,0.0278,0.024,0.0242,0.0237,0.0238,0.0238,0.0239,0.0239,0.0784,0.0864,0.0996,0.1102,0.1259,0.1441,0.1534,0.1661,0.1783,0.1833,0.1808,0.1688,0.1401,0.0855,0.056,0.0243,0.0261,0.0139,0.0145,0.0153,0.0146,0.0133,0.0063,0.0063,0.0063,0.0063,0.0063,0,0.0868,0.0936,0.1065,0.1253,0.1426,0.1488,0.1674,0.1739,0.1839,0.1851,0.1828,0.1499,0.1184,0.0853,0.0368,0.0095,0.0093,0.0013,0.0078,0.0089,0.0098,0.0092,-0.0007,-0.0008,-0.0009,-0.0009,0,0,0.0933,0.1054,0.1095,0.1332,0.1471,0.167,0.1763,0.1827,0.1831,0.1776,0.1662,0.1575,0.1205,0.0852,0.0509,0.0241,0.0222,0.0185,0.0265,0.0392,0.0404,0.0189,0.0193,0,0,0,0,0]}],[{"header":{"parameterUnit":"m.s-1","parameterCategory":2,"la1":30.2991,"la2":30.254,"lo1":-89.0895,"lo2":-89.0444,"dy":0.0017,"dx":0.0017,"nx":28,"ny":28,"refTime":"2023-10-16T21:00:00:Z","depth":"4","parameterNumber":2,"parameterNumberName":"U-component_of_CURRENTS"},"data":[0,0,0,0,0,0,0,0,0,0,0,0,0,0,0,0,0,0,0,0,0,0,0,0,0,0,0,0,0,0,0,0,0,0,0,0,0,0,0,0,0,0,0,0,0,0,0,0,0,0,0,0,0,0,0,0,0,0,0.1024,0.1024,0,0.1035,0.1035,0.1035,0.1111,0.1113,0.1115,0.1117,0.1216,0.1217,0.1218,0,0,0,0,0,0,0,0,0,0,0,0,0,0.1002,0.1003,0.1024,0.1024,0.1025,0.1035,0.1035,0.1035,0.1111,0.1113,0.1116,0.1118,0.1216,0.1217,0.1218,0,0,0,0,0,0,0,0,0,0,0,0,0,0.1011,0.1003,0.1024,0.1065,0.1069,0.1035,0.1035,0.1035,0.111,0.1114,0.1117,0.1119,0.1216,0.1217,0.1218,0.1165,0,0,0.1222,0.1222,0,0,0,0,0,0,0,0,0.1011,0.1012,0.1059,0.1062,0.1066,0.1076,0.1064,0.1083,0.111,0.1093,0.1117,0.1121,0.1176,0.1181,0.1173,0.117,0.1174,0.1222,0.1223,0.1223,0.1223,0,0,0,0,0,0,0,0.101,0.1011,0.1027,0.1059,0.1063,0.106,0.1065,0.1067,0.1118,0.1095,0.1101,0.1103,0.118,0.1172,0.1176,0.1176,0.1222,0.1223,0.1224,0.1224,0.1297,0.1298,0,0,0,0,0,0,0.1012,0.1011,0.1027,0.1027,0.1047,0.1058,0.1064,0.1069,0.1116,0.1126,0.1101,0.1107,0.1168,0.1175,0.118,0.1251,0.1223,0.1224,0.1225,0.1295,0.1297,0.1298,0,0,0,0,0,0,0.1011,0.1013,0.1026,0.102,0.1022,0.1056,0.1061,0.1067,0.1093,0.112,0.1132,0.1124,0.1171,0.1179,0.1231,0.1251,0.1225,0.1226,0.1294,0.1296,0.1297,0.1308,0,0,0,0,0,0,0.101,0.1012,0.1028,0.1021,0.1023,0.1033,0.1058,0.1066,0.1089,0.1098,0.1143,0.1153,0.1174,0.1229,0.1232,0.1252,0.1227,0.1292,0.1295,0.1297,0.1306,0.131,0.1314,0,0,0,0,0,0.1009,0.1014,0.1029,0.1032,0.104,0.1034,0.1035,0.1067,0.1087,0.11,0.1146,0.1154,0.1246,0.1231,0.1234,0.1254,0.1291,0.1294,0.1297,0.1305,0.131,0.1314,0,0,0,0,0,0,0.1022,0.1022,0.1039,0.1048,0.1055,0.1048,0.1059,0.1072,0.111,0.1131,0.1161,0.1175,0.1233,0.1238,0.122,0.1285,0.1272,0.1275,0.1277,0.1281,0.1285,0.1307,0.1228,0,0,0,0,0,0.1026,0.1028,0.1033,0.1042,0.1046,0.1053,0.1059,0.1077,0.11,0.1121,0.1154,0.1195,0.1234,0.1257,0.1289,0.1308,0.1334,0.1327,0.1331,0.1334,0.1356,0.1415,0.1427,0.1307,0.1307,0.1307,0,0,0.103,0.1034,0.1036,0.1045,0.105,0.1048,0.1065,0.1076,0.1094,0.1123,0.1171,0.1209,0.1246,0.1289,0.1313,0.1302,0.1378,0.1337,0.1339,0.1361,0.142,0.1431,0.1442,0.1309,0.1309,0.1308,0,0,0.1017,0.1045,0.1035,0.1039,0.1051,0.1058,0.1066,0.1076,0.1112,0.114,0.1188,0.1244,0.1274,0.1323,0.1345,0.1381,0.14,0.1389,0.1419,0.1475,0.1486,0.1495,0.1524,0.1536,0.1385,0.1385,0.1385,0,0.1024,0.1019,0.1033,0.1023,0.1039,0.1063,0.1065,0.1086,0.112,0.1171,0.1165,0.1271,0.1291,0.1375,0.1394,0.139,0.1422,0.1394,0.148,0.149,0.15,0.1527,0.1541,0.1385,0.1385,0.1385,0.1385,0,0.0992,0.1002,0.0997,0.1,0.102,0.1025,0.1059,0.1103,0.1141,0.1176,0.1275,0.1306,0.139,0.1386,0.1397,0.1487,0.1486,0.1481,0.1466,0.1513,0.1538,0.1552,0.1387,0.1386,0.1386,0.1386,0,0,0.0971,0.0973,0.0978,0.0989,0.1016,0.1027,0.1082,0.1151,0.1216,0.1255,0.1347,0.1401,0.1456,0.1487,0.1515,0.1542,0.1615,0.1543,0.1545,0.1568,0.1736,0.1618,0.1621,0.1631,0.1634,0.1637,0.1719,0,0.0948,0.0929,0.0952,0.0967,0.0966,0.1034,0.1088,0.1166,0.1236,0.1331,0.1403,0.1493,0.1484,0.1539,0.1575,0.1617,0.1656,0.1593,0.1693,0.1696,0.1583,0.1635,0.1646,0.1729,0.1732,0.1734,0.1736,0,0.0907,0.091,0.091,0.0972,0.0986,0.1016,0.1148,0.1199,0.1344,0.1409,0.1524,0.1594,0.1694,0.1657,0.1762,0.1729,0.1752,0.1752,0.1756,0.1658,0.1604,0.168,0.1761,0.1759,0.1757,0.1756,0.1754,0,0.087,0.0891,0.0901,0.091,0.0974,0.1036,0.1104,0.1238,0.1326,0.1486,0.1569,0.1694,0.1783,0.1824,0.1861,0.1832,0.1943,0.1901,0.1816,0.1807,0.1883,0.1872,0.1984,0.1984,0.1984,0.1983,0.1983,0,0.0823,0.0833,0.089,0.0889,0.0955,0.1025,0.1142,0.1225,0.1385,0.1496,0.1625,0.1724,0.1835,0.1919,0.1911,0.1911,0.2002,0.1842,0.1832,0.1881,0.1869,0.1891,0.1879,0.1986,0.1986,0.1985,0.1985,0,0.0758,0.0781,0.08,0.0887,0.0923,0.098,0.1152,0.1243,0.139,0.1539,0.1607,0.1796,0.1893,0.1965,0.2041,0.198,0.1974,0.1957,0.2013,0.2002,0.1783,0.1771,0.1858,0.1854,0.1852,0.1849,0.1847,0,0.0699,0.0702,0.079,0.0814,0.0855,0.0964,0.1049,0.1225,0.1325,0.1559,0.162,0.1803,0.1905,0.1923,0.1985,0.1984,0.1957,0.1947,0.1852,0.1794,0.1777,0.1769,0.1761,0.1843,0.1842,0.1842,0.1841,0,0.0617,0.0671,0.0701,0.0751,0.0828,0.091,0.1044,0.1118,0.1328,0.1485,0.1619,0.1698,0.1813,0.1865,0.1904,0.1885,0.1937,0.1917,0.1921,0.1832,0.1778,0.1761,0.1756,0.1831,0.1833,0.1834,0.1834,0,0.0569,0.0591,0.0648,0.07,0.0765,0.0819,0.0912,0.105,0.1178,0.1443,0.1485,0.165,0.1811,0.1816,0.1831,0.1826,0.1779,0.17,0.1714,0.1726,0.164,0.1549,0.1542,0,0,0,0,0,0.0526,0.0566,0.0592,0.0645,0.07,0.0754,0.0887,0.0995,0.1217,0.1278,0.1383,0.148,0.1559,0.1642,0.1605,0.1729,0.1754,0.1675,0.1662,0.1779,0.179,0.1698,0,0,0,0,0,0,0.051,0.0537,0.0576,0.0584,0.0616,0.0686,0.077,0.0911,0.0962,0.1179,0.1234,0.1391,0.1483,0.1576,0.1584,0.1602,0.1559,0.178,0.1776,0.1773,0.1783,0.1791,0.1701,0,0,0,0,0]},{"header":{"parameterUnit":"m.s-1","parameterCategory":2,"la1":30.2991,"la2":30.254,"lo1":-89.0895,"lo2":-89.0444,"dy":0.0017,"dx":0.0017,"nx":28,"ny":28,"refTime":"2023-10-16T21:00:00:Z","depth":"4","parameterNumber":3,"parameterNumberName":"V-component_of_CURRENTS"},"data":[0,0,0,0,0,0,0,0,0,0,0,0,0,0,0,0,0,0,0,0,0,0,0,0,0,0,0,0,0,0,0,0,0,0,0,0,0,0,0,0,0,0,0,0,0,0,0,0,0,0,0,0,0,0,0,0,0,0,0.0203,0.0203,0,0.0191,0.0191,0.0191,0.0157,0.0156,0.0155,0.0155,0.0091,0.009,0.0089,0,0,0,0,0,0,0,0,0,0,0,0,0,0.0192,0.0193,0.0203,0.0202,0.0202,0.0191,0.0191,0.019,0.0157,0.0156,0.0155,0.0154,0.0091,0.009,0.0089,0,0,0,0,0,0,0,0,0,0,0,0,0,0.019,0.0193,0.0203,0.0185,0.0183,0.0191,0.0191,0.019,0.0157,0.0156,0.0155,0.0154,0.0092,0.009,0.0089,0.01,0,0,0.0084,0.0083,0,0,0,0,0,0,0,0,0.019,0.019,0.0187,0.0186,0.0184,0.0175,0.0164,0.0158,0.0157,0.0166,0.0155,0.0153,0.0115,0.0112,0.0112,0.0097,0.0094,0.0084,0.0083,0.0082,0.0082,0,0,0,0,0,0,0,0.019,0.0191,0.0197,0.0187,0.0185,0.0176,0.0174,0.0163,0.0145,0.0165,0.0163,0.0163,0.0114,0.0114,0.011,0.0093,0.0084,0.0082,0.0081,0.0081,0.0077,0.0077,0,0,0,0,0,0,0.0194,0.0191,0.0198,0.0197,0.0185,0.0177,0.0175,0.0178,0.0146,0.0141,0.0164,0.0161,0.0117,0.0112,0.0108,0.0124,0.0082,0.0081,0.008,0.0076,0.0077,0.0078,0,0,0,0,0,0,0.0194,0.0195,0.0198,0.0194,0.0194,0.0178,0.0182,0.0179,0.0178,0.0146,0.0139,0.0167,0.0116,0.011,0.0104,0.0121,0.008,0.0079,0.0075,0.0076,0.0077,0.0154,0,0,0,0,0,0,0.0194,0.0195,0.0201,0.0194,0.0194,0.021,0.0183,0.0179,0.018,0.0177,0.0147,0.014,0.0114,0.0107,0.0103,0.0118,0.0077,0.0074,0.0075,0.0077,0.0151,0.0158,0.0164,0,0,0,0,0,0.0194,0.0207,0.0201,0.0202,0.0202,0.021,0.021,0.0195,0.0181,0.0189,0.0169,0.0141,0.0113,0.0107,0.0101,0.0117,0.0073,0.0075,0.0077,0.0148,0.0157,0.0164,0,0,0,0,0,0,0.0208,0.0204,0.0198,0.021,0.0213,0.0205,0.0213,0.0202,0.0194,0.0191,0.0154,0.0147,0.0147,0.0124,0.0117,0.012,0.0087,0.0088,0.0143,0.0151,0.0158,0.0157,0.0076,0,0,0,0,0,0.0214,0.022,0.0219,0.0229,0.0234,0.0226,0.0228,0.0221,0.0212,0.0207,0.019,0.0168,0.0153,0.0145,0.0129,0.0135,0.0088,0.014,0.0147,0.0153,0.0149,0.0088,0.0089,0.0084,0.0084,0.0084,0,0,0.0222,0.0221,0.0224,0.0232,0.0234,0.0252,0.0225,0.0237,0.025,0.0202,0.0218,0.0194,0.016,0.0165,0.0162,0.0146,0.0133,0.0155,0.0161,0.0153,0.009,0.009,0.0091,0.0085,0.0085,0.0085,0,0,0.0245,0.0244,0.0259,0.027,0.0278,0.0276,0.0282,0.0285,0.0284,0.0297,0.0263,0.0248,0.0237,0.0211,0.0196,0.023,0.0171,0.023,0.0263,0.0206,0.0206,0.0204,0.0159,0.0154,0.0233,0.0233,0.0233,0,0.0255,0.0278,0.0267,0.0291,0.0307,0.029,0.0321,0.0321,0.0321,0.0322,0.0312,0.0282,0.0256,0.0242,0.0256,0.0245,0.0204,0.0237,0.0214,0.0212,0.0209,0.0163,0.0155,0.0237,0.0236,0.0236,0.0236,0,0.0294,0.0317,0.0332,0.0355,0.0367,0.0395,0.0396,0.0409,0.0406,0.0396,0.0391,0.0356,0.0333,0.0326,0.0303,0.028,0.0255,0.0229,0.0192,0.0214,0.0164,0.0155,0.0242,0.0241,0.024,0.0239,0,0,0.0306,0.0351,0.0358,0.0387,0.0409,0.0427,0.0453,0.0467,0.0477,0.0468,0.0471,0.0445,0.0414,0.0394,0.0358,0.0311,0.0268,0.027,0.0265,0.0225,0.0145,0.0148,0.0138,0.0235,0.0234,0.0232,0.0123,0,0.0345,0.0409,0.0415,0.0477,0.0514,0.0515,0.054,0.0545,0.0537,0.0535,0.0488,0.0478,0.0443,0.0435,0.0382,0.0287,0.0245,0.03,0.013,0.0126,0.0124,0.0128,0.0228,0.0115,0.0113,0.0112,0.011,0,0.0384,0.0424,0.0497,0.055,0.0566,0.0598,0.0631,0.0648,0.0628,0.062,0.0588,0.0545,0.0483,0.0452,0.03,0.0335,0.0254,0.018,0.0174,0.0139,0.0111,0.0084,0.0093,0.0094,0.0096,0.0097,0.0098,0,0.0413,0.048,0.0544,0.0567,0.0621,0.0655,0.0679,0.0679,0.07,0.0671,0.0672,0.0582,0.0549,0.0419,0.028,0.0284,0.0102,0.0086,0.0015,0.0014,0.0009,0.0011,-0.0013,-0.0013,-0.0012,-0.0012,-0.0012,0,0.0461,0.051,0.057,0.0613,0.0682,0.07,0.0761,0.0764,0.0771,0.0786,0.072,0.0703,0.0539,0.0422,0.0283,0.0117,0.0102,0.0016,-0.0017,0.0047,0.0055,0.0003,0.0006,-0.0016,-0.0015,-0.0015,-0.0014,0,0.0487,0.0531,0.0604,0.0677,0.0705,0.0754,0.0832,0.0871,0.0863,0.0879,0.0878,0.0787,0.063,0.0457,0.024,0.014,-0.0032,-0.0078,0.001,-0.0017,-0.0081,-0.0072,-0.0176,-0.0177,-0.0178,-0.0178,-0.0179,0,0.0508,0.0554,0.0646,0.0696,0.074,0.082,0.0883,0.0919,0.095,0.0926,0.0929,0.081,0.0725,0.0423,0.0234,-0.0033,-0.0058,-0.0136,-0.0112,-0.0077,-0.01,-0.009,-0.008,-0.018,-0.018,-0.018,-0.0181,0,0.0536,0.0569,0.0621,0.0729,0.0815,0.0905,0.0985,0.1016,0.1042,0.104,0.0971,0.0831,0.066,0.0429,0.023,0.0039,-0.0091,-0.0145,-0.0144,-0.0122,-0.0083,-0.0103,-0.0092,-0.0183,-0.0183,-0.0183,-0.0182,0,0.0536,0.0577,0.0652,0.0747,0.0851,0.0951,0.1,0.1041,0.1075,0.1041,0.1015,0.0835,0.0735,0.0466,0.027,0.0088,0.0048,0.0002,-0.0006,-0.0005,0.0078,0.0154,0.0095,0,0,0,0,0,0.0535,0.0591,0.0671,0.0778,0.0879,0.0955,0.1048,0.1086,0.1113,0.1075,0.1045,0.0884,0.0612,0.0494,0.0311,0.0247,0.0009,0.0028,-0.005,-0.0198,-0.0195,-0.0126,0,0,0,0,0,0,0.0541,0.0605,0.0662,0.0784,0.0865,0.0993,0.1064,0.1088,0.1059,0.1048,0.0903,0.0844,0.0573,0.071,0.0307,0.0253,0.0181,-0.0098,-0.0101,-0.0199,-0.0197,-0.0194,-0.0122,0,0,0,0,0]}]]